Weather History for Fulton, NY

Change the Weather History Date:

Monday, June 16, 2014

  Actual Average (KSYR) Record (KSYR)
Temperature  
Mean Temperature 64 °F 67 °F  
Max Temperature 82 °F 78 °F 93 °F (1981)
Min Temperature 46 °F 56 °F 43 °F (1984)
Degree Days  
Heating Degree Days 1 2  
Month to date heating degree days 46  
Since 1 June heating degree days 46  
Since 1 July heating degree days 6636  
Cooling Degree Days 0 4  
Month to date cooling degree days 44  
Year to date cooling degree days 74  
Since 1 June cooling degree days 44  
Growing Degree Days 14 (Base 50)    
Moisture  
Dew Point 56 °F    
Average Humidity 78    
Maximum Humidity 97    
Minimum Humidity 47    
Precipitation  
Precipitation 0.00 in 0.11 in 1.43 in (2010)
Month to date precipitation 1.76  
Year to date precipitation 15.69  
Snow  
Snow 0.00 in 0.00 in 0.00 in (2002)
Month to date snowfall 0.0  
Since 1 June snowfall 0.0  
Since 1 July snowfall 123.8  
Snow Depth -    
Sea Level Pressure  
Sea Level Pressure 30.07 in    
Wind  
Wind Speed 2 mph (ESE)    
Max Wind Speed 6 mph    
Max Gust Speed -    
Visibility 8 miles    
Events Fog    
T = Trace of Precipitation, MM = Missing Value Source: NWS Daily Summary

Daily Weather History Graph

Daily Weather History Graph

Search for Another Location

Airport:

Trip Planner

Search our weather history database for the weather conditions in past years. The results will help you decide how hot, cold, wet, or windy it might be!

Date:

Astronomy

Jun. 16, 2014 Rise Set
Actual Time 5:24 AM EDT 8:48 PM EDT
Civil Twilight 4:48 AM EDT 9:23 PM EDT
Nautical Twilight 4:02 AM EDT 10:10 PM EDT
Astronomical Twilight 3:04 AM EDT 11:08 PM EDT
Moon 11:31 PM EDT (6/16) 9:31 AM EDT (6/16)
Length of Visible Light 16h 34m
Length of Day
15h 23m
Waning Gibbous, 83% of the Moon is Illuminated
Jun 16
Waning Gibbous
Jun 19
Last Quarter
Jun 27
New
Jul 5
First Quarter
Jul 12
Full

Hourly Weather History & Observations

Time (EDT) Temp. Heat Index Dew Point Humidity Pressure Visibility Wind Dir Wind Speed Gust Speed Precip Events Conditions
12:54 AM 48.9 °F - 46.9 °F 93% 30.14 in 10.0 mi Calm Calm - N/A   Clear
1:54 AM 48.0 °F - 46.0 °F 93% 30.13 in 10.0 mi Calm Calm - N/A   Clear
2:54 AM 48.0 °F - 45.0 °F 89% 30.14 in 8.0 mi Calm Calm - N/A   Clear
3:54 AM 46.0 °F - 43.0 °F 89% 30.12 in 10.0 mi Calm Calm - N/A   Clear
4:54 AM 46.9 °F - 44.1 °F 90% 30.12 in 10.0 mi ESE 3.5 mph - N/A   Clear
5:54 AM 51.1 °F - 48.0 °F 89% 30.12 in 10.0 mi ESE 3.5 mph - N/A   Clear
6:25 AM 51.1 °F - 48.9 °F 92% 30.12 in 8.0 mi Variable 4.6 mph - N/A   Scattered Clouds
6:29 AM 52.0 °F - 50.0 °F 93% 30.12 in 1.0 mi Variable 3.5 mph - N/A   Mist
6:36 AM 53.1 °F - 51.1 °F 93% 30.12 in 0.2 mi Variable 3.5 mph - N/A Fog Fog
6:54 AM 54.0 °F - 52.0 °F 93% 30.13 in 0.2 mi Variable 4.6 mph - N/A Fog Fog
7:43 AM 55.9 °F - 55.0 °F 97% 30.13 in 1.2 mi Variable 3.5 mph - N/A   Overcast
7:48 AM 57.2 °F - 55.4 °F 94% 30.13 in 3.0 mi ESE 3.5 mph - N/A   Overcast
7:54 AM 57.0 °F - 55.0 °F 93% 30.12 in 8.0 mi Variable 3.5 mph - N/A   Mostly Cloudy
8:05 AM 59.0 °F - 57.0 °F 93% 30.13 in 10.0 mi Variable 3.5 mph - N/A   Scattered Clouds
8:54 AM 64.0 °F - 57.9 °F 80% 30.12 in 10.0 mi Variable 3.5 mph - N/A   Clear
9:54 AM 69.1 °F - 57.9 °F 68% 30.11 in 10.0 mi Variable 4.6 mph - N/A   Clear
10:54 AM 73.0 °F - 61.0 °F 66% 30.10 in 10.0 mi Variable 4.6 mph - N/A   Clear
11:54 AM 75.9 °F - 61.0 °F 60% 30.08 in 10.0 mi SE 4.6 mph - N/A   Clear
12:54 PM 78.1 °F - 63.0 °F 60% 30.06 in 10.0 mi Variable 4.6 mph - N/A   Clear
1:54 PM 78.1 °F - 62.1 °F 58% 30.04 in 10.0 mi SE 3.5 mph - N/A   Mostly Cloudy
2:54 PM 78.1 °F - 63.0 °F 60% 30.02 in 10.0 mi ESE 4.6 mph - N/A   Overcast
3:54 PM 80.1 °F 81.7 °F 64.0 °F 58% 30.01 in 10.0 mi Calm Calm - 0.00 in   Mostly Cloudy
4:54 PM 82.0 °F 83.0 °F 62.1 °F 51% 29.99 in 10.0 mi ESE 5.8 mph - N/A   Scattered Clouds
5:54 PM 82.9 °F 83.3 °F 61.0 °F 47% 29.97 in 10.0 mi Variable 3.5 mph - N/A   Clear
6:54 PM 80.1 °F 81.1 °F 61.0 °F 52% 29.96 in 10.0 mi SE 3.5 mph - N/A   Mostly Cloudy
7:54 PM 78.1 °F - 62.1 °F 58% 29.99 in 10.0 mi SE 4.6 mph - N/A   Mostly Cloudy
8:54 PM 72.0 °F - 63.0 °F 73% 29.99 in 10.0 mi Calm Calm - N/A   Clear
9:54 PM 66.9 °F - 63.0 °F 87% 30.00 in 10.0 mi Calm Calm - N/A   Clear
10:54 PM 66.0 °F - 62.1 °F 87% 30.00 in 10.0 mi Calm Calm - N/A   Clear
11:54 PM 66.0 °F - 62.1 °F 87% 30.01 in 10.0 mi Calm Calm - N/A   Mostly Cloudy